����,���ϕ���(m/s),���ϕ���,�ő�u�ԕ���(m/s),�ő啗��������,�C��(��),���x(%),10���Ԉړ��ώZ�J��(mm),1���Ԉړ��ώZ�J��(mm),���J��(mm),�݌v�J��(mm),����(���ώZ)(MJ/m2),����(���ώZ)(min),���n�C��(hPa),�C�ʋC��(hPa)
2023-03-13T00:00:00+09:00,4.9,��쐼,7.4,��쐼,13.8,88.4,0.5,1,1,1,18.23,560,1001.6,1015.5
2023-03-13T00:01:00+09:00,4.8,��쐼,7.4,��쐼,13.7,88.6,0.5,1,0,1,0,0,1001.4,1015.3
2023-03-13T00:02:00+09:00,4.8,��쐼,7.5,��쐼,13.6,88.7,1,1.5,0.5,1.5,0,0,1001.4,1015.3
2023-03-13T00:03:00+09:00,4.7,��쐼,7.5,��쐼,13.6,89.1,1,1.5,0.5,1.5,0,0,1001.4,1015.3
2023-03-13T00:04:00+09:00,4.8,��쐼,9.5,��쐼,13.5,89.5,0.5,1.5,0.5,1.5,0,0,1001.4,1015.3
2023-03-13T00:05:00+09:00,4.9,��쐼,9.5,��쐼,13.7,90.1,0.5,1.5,0.5,1.5,0,0,1001.3,1015.2
2023-03-13T00:06:00+09:00,4.8,��쐼,10.3,��쐼,13.7,90.4,0.5,1.5,0.5,1.5,0,0,1001.3,1015.2
2023-03-13T00:07:00+09:00,4.9,��쐼,10.3,��쐼,13.6,90.2,0.5,1.5,0.5,1.5,0,0,1001.1,1015
2023-03-13T00:08:00+09:00,4.9,��쐼,10.3,��쐼,13.7,90.4,0.5,1.5,0.5,1.5,0,0,1001.2,1015.1
2023-03-13T00:09:00+09:00,4.9,��쐼,10.3,��쐼,13.6,90.3,0.5,1.5,0.5,1.5,0,0,1001.2,1015.1
2023-03-13T00:10:00+09:00,4.8,��쐼,10.3,��쐼,13.6,90.3,0.5,1.5,0.5,1.5,0,0,1001.3,1015.2
2023-03-13T00:11:00+09:00,4.9,��쐼,10.3,��쐼,13.6,90.6,0.5,1.5,0.5,1.5,0,0,1001.3,1015.2
2023-03-13T00:12:00+09:00,4.8,��쐼,10.3,��쐼,13.6,90.7,0,1.5,0.5,1.5,0,0,1001.3,1015.2
2023-03-13T00:13:00+09:00,5,��쐼,10.3,��쐼,13.6,91,0,1.5,0.5,1.5,0,0,1001.2,1015.1
2023-03-13T00:14:00+09:00,5,��쐼,10.3,��쐼,13.7,91.3,0,1.5,0.5,1.5,0,0,1001.3,1015.2
2023-03-13T00:15:00+09:00,5,��쐼,10.3,��쐼,13.6,91.2,0,1.5,0.5,1.5,0,0,1001.2,1015.1
2023-03-13T00:16:00+09:00,5.1,��쐼,8.4,��쐼,13.7,91.1,0,1.5,0.5,1.5,0,0,1001.2,1015.1
2023-03-13T00:17:00+09:00,5.1,��쐼,8.3,��,13.7,91,0.5,2,1,2,0,0,1001.2,1015.1
2023-03-13T00:18:00+09:00,4.9,��쐼,8.3,��,13.7,91,0.5,2,1,2,0,0,1001.3,1015.2
2023-03-13T00:19:00+09:00,4.8,��쐼,8.3,��,13.6,90.9,0.5,2,1,2,0,0,1001.2,1015.1
2023-03-13T00:20:00+09:00,4.9,��쐼,8.3,��,13.7,91.1,0.5,2,1,2,0,0,1001.3,1015.2
2023-03-13T00:21:00+09:00,5,��쐼,8.3,��,13.7,91.3,0.5,2,1,2,0,0,1001.3,1015.2
2023-03-13T00:22:00+09:00,5,��쐼,8.3,��,13.7,91.5,0.5,2,1,2,0,0,1001.3,1015.2
2023-03-13T00:23:00+09:00,4.9,��쐼,7.6,��쐼,13.7,91.4,0.5,2,1,2,0,0,1001.2,1015.1
2023-03-13T00:24:00+09:00,4.9,��쐼,7.6,��쐼,13.7,91.3,0.5,2,1,2,0,0,1001.2,1015.1
2023-03-13T00:25:00+09:00,4.7,��쐼,7.6,��쐼,13.6,91.1,0.5,2,1,2,0,0,1001.3,1015.2
2023-03-13T00:26:00+09:00,4.7,��쐼,7.6,��쐼,13.6,91,0.5,2,1,2,0,0,1001.3,1015.2
2023-03-13T00:27:00+09:00,4.7,��쐼,7.8,��쐼,13.6,91.2,0,2,1,2,0,0,1001.2,1015.1
2023-03-13T00:28:00+09:00,4.9,��쐼,7.8,��쐼,13.7,91.6,0,2,1,2,0,0,1001.2,1015.1
2023-03-13T00:29:00+09:00,5.1,��쐼,7.8,��쐼,13.8,91.7,0,2,1,2,0,0,1001.1,1015
2023-03-13T00:30:00+09:00,5,��쐼,7.8,��쐼,13.9,91.5,0,2,1,2,0,0,1001.2,1015.1
2023-03-13T00:31:00+09:00,5,��쐼,7.8,��쐼,13.9,91.2,0,2,1,2,0,0,1001.2,1015.1
2023-03-13T00:32:00+09:00,4.9,��쐼,7.8,��쐼,14,90.9,0,2,1,2,0,0,1001.2,1015.1
2023-03-13T00:33:00+09:00,4.8,��쐼,7.8,��쐼,14,90.6,0,1.5,1,2,0,0,1001.2,1015.1
2023-03-13T00:34:00+09:00,4.7,��쐼,7.8,��쐼,14,90.2,0,1.5,1,2,0,0,1001.2,1015.1
2023-03-13T00:35:00+09:00,4.8,��쐼,7.8,��쐼,14.1,90.1,0,1.5,1,2,0,0,1001.3,1015.2
2023-03-13T00:36:00+09:00,4.8,��쐼,7.8,��쐼,14.1,89.8,0,1.5,1,2,0,0,1001.2,1015.1
2023-03-13T00:37:00+09:00,4.9,��쐼,11.7,��쐼,14.2,89.1,0,1.5,1,2,0,0,1001,1014.9
2023-03-13T00:38:00+09:00,5.1,��쐼,11.7,��쐼,14.3,89,0,1.5,1,2,0,0,1001,1014.9
2023-03-13T00:39:00+09:00,5.1,��쐼,11.7,��쐼,14.4,88.6,0,1.5,1,2,0,0,1001.2,1015.1
2023-03-13T00:40:00+09:00,4.9,��쐼,11.7,��쐼,14.4,87.8,0,1.5,1,2,0,0,1001.2,1015.1
2023-03-13T00:41:00+09:00,4.8,��쐼,11.7,��쐼,14.3,87,0,1.5,1,2,0,0,1001.2,1015.1
2023-03-13T00:42:00+09:00,4.9,��쐼,11.7,��쐼,14.3,86.6,0,1.5,1,2,0,0,1001.2,1015.1
2023-03-13T00:43:00+09:00,4.9,��쐼,11.7,��쐼,14.3,86.6,0,1.5,1,2,0,0,1001.1,1015
2023-03-13T00:44:00+09:00,5,��쐼,11.7,��쐼,14.2,86.6,0,1.5,1,2,0,0,1001.1,1015
2023-03-13T00:45:00+09:00,5,��쐼,11.7,��쐼,14.2,86.6,0,1.5,1,2,0,0,1001.2,1015.1
2023-03-13T00:46:00+09:00,5,��쐼,11.7,��쐼,14.3,86.9,0,1.5,1,2,0,0,1000.9,1014.8
2023-03-13T00:47:00+09:00,4.9,��쐼,9.1,��쐼,14.4,87,0,1.5,1,2,0,0,1001.1,1015
2023-03-13T00:48:00+09:00,4.7,��쐼,8.6,��,14.4,86.6,0,1.5,1,2,0,0,1001,1014.9
2023-03-13T00:49:00+09:00,4.7,��쐼,8.6,��,14.4,86.3,0,1.5,1,2,0,0,1001.1,1015
2023-03-13T00:50:00+09:00,4.9,��쐼,8.6,��,14.4,86.2,0,1.5,1,2,0,0,1001,1014.9
2023-03-13T00:51:00+09:00,5,��쐼,8.6,��,14.4,86,0,1.5,1,2,0,0,1001.1,1015
2023-03-13T00:52:00+09:00,4.9,��쐼,8.6,��,14.4,85.7,0,1.5,1,2,0,0,1001.1,1015
2023-03-13T00:53:00+09:00,4.9,��쐼,8.6,��,14.4,85.6,0,1.5,1,2,0,0,1001,1014.9
2023-03-13T00:54:00+09:00,5,��쐼,8.6,��,14.5,85.5,0,1,1,2,0,0,1001,1014.9
2023-03-13T00:55:00+09:00,5.1,��쐼,8.9,��쐼,14.5,85.1,0,1,1,2,0,0,1001.2,1015.1
2023-03-13T00:56:00+09:00,5.2,��쐼,8.9,��쐼,14.6,84.7,0,1,1,2,0,0,1001.1,1015
2023-03-13T00:57:00+09:00,5.1,��쐼,8.9,��쐼,14.5,84,0.5,1.5,1.5,2.5,0,0,1001,1014.9
2023-03-13T00:58:00+09:00,5.1,��쐼,8.9,��쐼,14.5,83.7,0.5,1.5,1.5,2.5,0,0,1001.1,1015
2023-03-13T00:59:00+09:00,4.9,��쐼,8.9,��쐼,14.5,83.6,0.5,1.5,1.5,2.5,0,0,1000.9,1014.8
2023-03-13T01:00:00+09:00,4.8,��쐼,8.9,��쐼,14.5,83.6,0.5,1.5,1.5,2.5,0,0,1001,1014.9
2023-03-13T01:01:00+09:00,4.6,��쐼,8.9,��쐼,14.7,83.2,0.5,1.5,1.5,2.5,0,0,1001,1014.8
2023-03-13T01:02:00+09:00,4.5,��쐼,8.9,��쐼,14.6,82.4,0.5,1,1.5,2.5,0,0,1000.9,1014.8
2023-03-13T01:03:00+09:00,4.3,��쐼,8.9,��쐼,14.6,82.3,0.5,1,1.5,2.5,0,0,1000.9,1014.8
2023-03-13T01:04:00+09:00,4.1,��쐼,8.9,��쐼,14.5,82.2,0.5,1,1.5,2.5,0,0,1000.8,1014.7
2023-03-13T01:05:00+09:00,4.1,��,8.5,��쐼,14.5,82.5,0.5,1,1.5,2.5,0,0,1000.8,1014.7
2023-03-13T01:06:00+09:00,3.9,��,7.1,��쐼,14.5,82.7,0.5,1,1.5,2.5,0,0,1000.9,1014.8
2023-03-13T01:07:00+09:00,3.8,��,7.1,��쐼,14.5,82.6,0,1,1.5,2.5,0,0,1000.8,1014.7
2023-03-13T01:08:00+09:00,3.8,��,10.4,��,14.5,82.7,0,1,1.5,2.5,0,0,1000.8,1014.7
2023-03-13T01:09:00+09:00,4.1,��쐼,10.4,��,14.5,83,0,1,1.5,2.5,0,0,1000.7,1014.6
2023-03-13T01:10:00+09:00,4.3,��쐼,10.4,��,14.6,82.9,0,1,1.5,2.5,0,0,1000.9,1014.8
2023-03-13T01:11:00+09:00,4.3,��쐼,10.4,��,14.5,82.4,0,1,1.5,2.5,0,0,1000.8,1014.7
2023-03-13T01:12:00+09:00,4.3,��쐼,10.4,��,14.5,82.2,0,1,1.5,2.5,0,0,1000.8,1014.7
2023-03-13T01:13:00+09:00,4.3,��쐼,10.4,��,14.7,82.3,0,1,1.5,2.5,0,0,1000.7,1014.5
2023-03-13T01:14:00+09:00,4.5,��쐼,10.4,��,14.8,81.6,0,1,1.5,2.5,0,0,1000.6,1014.4
2023-03-13T01:15:00+09:00,4.4,��쐼,10.4,��,14.8,80.8,0,1,1.5,2.5,0,0,1000.5,1014.3
2023-03-13T01:16:00+09:00,4.4,��쐼,10.4,��,14.8,80.3,0,1,1.5,2.5,0,0,1000.7,1014.5
2023-03-13T01:17:00+09:00,4.4,��쐼,10.4,��,14.7,80.2,0,0.5,1.5,2.5,0,0,1000.6,1014.4
2023-03-13T01:18:00+09:00,4.2,��쐼,9.6,��,14.7,80.3,0,0.5,1.5,2.5,0,0,1000.6,1014.4
2023-03-13T01:19:00+09:00,4,��쐼,9.6,��,14.6,80.3,0,0.5,1.5,2.5,0,0,1000.7,1014.5
2023-03-13T01:20:00+09:00,3.8,��쐼,9.6,��,14.6,80.7,0,0.5,1.5,2.5,0,0,1000.5,1014.3
2023-03-13T01:21:00+09:00,4,��쐼,11,��쓌,14.7,81,0,0.5,1.5,2.5,0,0,1000.4,1014.2
2023-03-13T01:22:00+09:00,4.2,��쐼,11,��쓌,15,81.1,0,0.5,1.5,2.5,0,0,1000.4,1014.2
2023-03-13T01:23:00+09:00,4.5,��쐼,11,��쓌,15,80,0,0.5,1.5,2.5,0,0,1000.4,1014.2
2023-03-13T01:24:00+09:00,4.4,��쐼,11,��쓌,14.8,79.5,0,0.5,1.5,2.5,0,0,1000.4,1014.2
2023-03-13T01:25:00+09:00,4.3,��쐼,11,��쓌,14.6,79.9,0,0.5,1.5,2.5,0,0,1000.4,1014.2
2023-03-13T01:26:00+09:00,4.1,��쐼,11,��쓌,14.7,80.7,0,0.5,1.5,2.5,0,0,1000.4,1014.2
2023-03-13T01:27:00+09:00,4.1,��쐼,11,��쓌,14.6,80.9,0,0.5,1.5,2.5,0,0,1000.3,1014.1
2023-03-13T01:28:00+09:00,4,��쐼,11,��쓌,14.9,81.2,0.5,1,2,3,0,0,1000.3,1014.1
2023-03-13T01:29:00+09:00,4.1,��,11,��쓌,14.9,80.6,0.5,1,2,3,0,0,1000.3,1014.1
2023-03-13T01:30:00+09:00,4.1,��,11,��쓌,14.9,80.1,0.5,1,2,3,0,0,1000.2,1014
2023-03-13T01:31:00+09:00,4.1,��쐼,10.2,��,14.8,79.9,0.5,1,2,3,0,0,1000.2,1014
2023-03-13T01:32:00+09:00,4.1,��쐼,10.2,��,14.8,80.2,0.5,1,2,3,0,0,1000.2,1014
2023-03-13T01:33:00+09:00,4,��쐼,10.2,��,14.8,80.3,0.5,1,2,3,0,0,1000.2,1014
2023-03-13T01:34:00+09:00,3.9,��쐼,10.2,��,14.6,80.4,0.5,1,2,3,0,0,1000.1,1013.9
2023-03-13T01:35:00+09:00,3.9,��쐼,10.2,��,14.6,80.9,0.5,1,2,3,0,0,1000.2,1014
2023-03-13T01:36:00+09:00,3.8,��쐼,10.2,��,14.4,81.3,0.5,1,2,3,0,0,1000.2,1014.1
2023-03-13T01:37:00+09:00,3.8,��쐼,10.2,��,14.4,82.2,0.5,1,2,3,0,0,1000.2,1014.1
2023-03-13T01:38:00+09:00,3.8,��쐼,10.2,��,14.3,83.2,0,1,2,3,0,0,1000.2,1014.1
2023-03-13T01:39:00+09:00,3.5,��쐼,9.5,��쐼,14.3,83.9,0,1,2,3,0,0,1000.1,1014
2023-03-13T01:40:00+09:00,3.3,��쐼,9.5,��쐼,14.2,84.6,0,1,2,3,0,0,1000.2,1014.1
2023-03-13T01:41:00+09:00,2.9,��쐼,8.3,��,14.1,85.3,0,1,2,3,0,0,1000.1,1014
2023-03-13T01:42:00+09:00,2.5,��쐼,7.1,�쐼,14.2,86.1,0,1,2,3,0,0,1000.2,1014.1
2023-03-13T01:43:00+09:00,2.2,��쐼,7.1,�쐼,14.3,86.6,0,1,2,3,0,0,1000.1,1014
2023-03-13T01:44:00+09:00,2.1,��쐼,6.1,��쐼,14.5,86.9,0,1,2,3,0,0,1000.2,1014
2023-03-13T01:45:00+09:00,2.2,��쐼,6.1,��쐼,14.6,86.4,0,1,2,3,0,0,1000.2,1014
2023-03-13T01:46:00+09:00,2.3,��쐼,6.1,��쐼,14.4,85.2,0,1,2,3,0,0,1000.3,1014.2
2023-03-13T01:47:00+09:00,2.1,�쐼,6.1,��쐼,14.3,85.3,0,1,2,3,0,0,1000.2,1014.1
2023-03-13T01:48:00+09:00,2.1,�쐼,6.1,��쐼,14.2,85.6,0,1,2,3,0,0,1000.2,1014.1
2023-03-13T01:49:00+09:00,2.1,�쐼,6.1,��쐼,14.3,86,0,1,2,3,0,0,1000.2,1014.1
2023-03-13T01:50:00+09:00,2.3,��쐼,6.1,��쐼,14.5,86.3,0,1,2,3,0,0,1000.2,1014
2023-03-13T01:51:00+09:00,2.6,��쐼,6.8,��쐼,14.7,86,0,1,2,3,0,0,1000,1013.8
2023-03-13T01:52:00+09:00,2.9,��쐼,8.5,��쐼,14.9,85,0,1,2,3,0,0,1000.1,1013.9
2023-03-13T01:53:00+09:00,3,��쐼,8.5,��쐼,15,83.9,0,1,2,3,0,0,1000.1,1013.9
2023-03-13T01:54:00+09:00,3,��쐼,8.5,��쐼,14.8,82.6,0,1,2,3,0,0,1000.1,1013.9
2023-03-13T01:55:00+09:00,3.1,��쐼,8.5,��쐼,14.5,82,0.5,1.5,2.5,3.5,0,0,1000,1013.8
2023-03-13T01:56:00+09:00,3.1,��쐼,8.5,��쐼,14.4,82.9,0.5,1.5,2.5,3.5,0,0,1000.2,1014.1
2023-03-13T01:57:00+09:00,3.5,��쐼,9.3,��,14.6,83.8,0.5,1,2.5,3.5,0,0,1000,1013.8
2023-03-13T01:58:00+09:00,4.2,��쐼,11.1,��쐼,14.9,84.4,0.5,1,2.5,3.5,0,0,1000,1013.8
2023-03-13T01:59:00+09:00,4.3,��쐼,11.1,��쐼,14.8,83.6,0.5,1,2.5,3.5,0,0,1000,1013.8
2023-03-13T02:00:00+09:00,4.2,��쐼,11.1,��쐼,14.4,82.5,0.5,1,2.5,3.5,0,0,1000,1013.8
2023-03-13T02:01:00+09:00,4.1,��쐼,11.1,��쐼,14.4,83.7,1,1.5,3,4,0,0,1000,1013.8
2023-03-13T02:02:00+09:00,3.9,��쐼,11.1,��쐼,14.5,84.9,1,1.5,3,4,0,0,1000.1,1013.9
2023-03-13T02:03:00+09:00,3.8,��쐼,11.1,��쐼,14.5,85.2,1,1.5,3,4,0,0,1000.2,1014
2023-03-13T02:04:00+09:00,3.9,��쐼,11.1,��쐼,14.5,85.3,1,1.5,3,4,0,0,1000.2,1014
2023-03-13T02:05:00+09:00,3.7,��쐼,11.1,��쐼,14.4,85,0.5,1.5,3,4,0,0,1000.2,1014.1
2023-03-13T02:06:00+09:00,3.6,��쐼,11.1,��쐼,14.3,85.1,0.5,1.5,3,4,0,0,1000.3,1014.2
2023-03-13T02:07:00+09:00,3.3,��쐼,11.1,��쐼,14.5,86.2,0.5,1.5,3,4,0,0,1000.2,1014
2023-03-13T02:08:00+09:00,2.7,��쐼,6.1,��,14.6,86.3,1,2,3.5,4.5,0,0,1000.3,1014.1
2023-03-13T02:09:00+09:00,2.9,��쐼,6.4,��,14.2,85.2,1,2,3.5,4.5,0,0,1000.3,1014.2
2023-03-13T02:10:00+09:00,2.9,��쐼,6.4,��,14.2,85.7,1.5,2.5,4,5,0,0,1000.4,1014.3
2023-03-13T02:11:00+09:00,2.8,��쐼,6.4,��,14,86.6,1,2.5,4,5,0,0,1000.3,1014.2
2023-03-13T02:12:00+09:00,2.8,��쐼,6.4,��,13.9,87.5,1.5,3,4.5,5.5,0,0,1000.4,1014.3
2023-03-13T02:13:00+09:00,2.8,�쐼,6.4,��,13.8,88.4,2,3.5,5,6,0,0,1000.5,1014.4
2023-03-13T02:14:00+09:00,2.7,�쐼,6.4,��,13.7,89.4,2.5,4,5.5,6.5,0,0,1000.6,1014.5
2023-03-13T02:15:00+09:00,2.4,�쐼,6.4,��,13.7,90.4,2.5,4,5.5,6.5,0,0,1000.6,1014.5
2023-03-13T02:16:00+09:00,2.4,�쐼,6.4,��,13.6,91.3,2.5,4,5.5,6.5,0,0,1000.5,1014.4
2023-03-13T02:17:00+09:00,2.5,���쐼,6.4,��,13.4,90.6,2.5,4,5.5,6.5,0,0,1000.5,1014.4
2023-03-13T02:18:00+09:00,2.5,���쐼,6.4,��,12.9,91.1,2,4,5.5,6.5,0,0,1000.5,1014.4
2023-03-13T02:19:00+09:00,2.6,��,12.4,�k�k��,12.4,90,2.5,4.5,6,7,0,0,1000.5,1014.5
2023-03-13T02:20:00+09:00,3.3,�k�k��,15.7,�k�k��,11.7,88.8,2,4.5,6,7,0,0,1000.5,1014.5
2023-03-13T02:21:00+09:00,4,�k,15.7,�k�k��,11.5,88.9,2,4.5,6,7,0,0,1000.8,1014.8
2023-03-13T02:22:00+09:00,4.6,�k,15.7,�k�k��,11.2,89.2,1.5,4.5,6,7,0,0,1000.7,1014.7
2023-03-13T02:23:00+09:00,5.1,�k�k��,15.7,�k�k��,11.1,89.8,1.5,5,6.5,7.5,0,0,1000.8,1014.8
2023-03-13T02:24:00+09:00,5.6,�k�k��,15.7,�k�k��,10.9,90.5,1,5,6.5,7.5,0,0,1000.7,1014.7
2023-03-13T02:25:00+09:00,6.3,�k�k��,15.7,�k�k��,10.7,90.5,1,5,6.5,7.5,0,0,1000.5,1014.5
2023-03-13T02:26:00+09:00,7.1,�k�k��,15.7,�k�k��,10.7,91.3,1,5,6.5,7.5,0,0,1000.9,1014.9
2023-03-13T02:27:00+09:00,7.4,�k�k��,15.7,�k�k��,10.6,91.9,1,5,6.5,7.5,0,0,1001,1015
2023-03-13T02:28:00+09:00,7.7,�k�k��,15.7,�k�k��,10.6,92.7,1,4.5,6.5,7.5,0,0,1001,1015
2023-03-13T02:29:00+09:00,7.8,�k�k��,15.7,�k�k��,10.6,93,0.5,4.5,6.5,7.5,0,0,1000.9,1014.9
2023-03-13T02:30:00+09:00,7.5,�k�k��,14.4,�k�k��,10.6,93.5,1,5,7,8,0,0,1000.9,1014.9
2023-03-13T02:31:00+09:00,7.4,�k�k��,14.4,�k�k��,10.5,93.8,1,5,7,8,0,0,1000.9,1015
2023-03-13T02:32:00+09:00,7.4,�k�k��,14.4,�k�k��,10.4,93.6,1,5,7,8,0,0,1001,1015.1
2023-03-13T02:33:00+09:00,7.2,�k�k��,14.4,�k�k��,10.4,93.7,0.5,5,7,8,0,0,1000.9,1015
2023-03-13T02:34:00+09:00,7.3,�k�k��,14.4,�k�k��,10.4,94.3,0.5,5,7,8,0,0,1000.9,1015
2023-03-13T02:35:00+09:00,7.4,�k�k��,13.5,�k��,10.4,94.3,0.5,5,7,8,0,0,1000.9,1015
2023-03-13T02:36:00+09:00,7.2,�k�k��,12.3,�k�k��,10.3,94.4,0.5,5,7,8,0,0,1001,1015.1
2023-03-13T02:37:00+09:00,7.3,�k�k��,12.3,�k�k��,10.3,94.3,0.5,5,7,8,0,0,1001,1015.1
2023-03-13T02:38:00+09:00,7.6,�k�k��,12.3,�k�k��,10.3,94.4,0.5,5,7,8,0,0,1001,1015.1
2023-03-13T02:39:00+09:00,7.7,�k�k��,12.3,�k�k��,10.2,94,0.5,5,7,8,0,0,1000.9,1015
2023-03-13T02:40:00+09:00,7.8,�k�k��,12.3,�k�k��,10.2,94,0,5,7,8,0,0,1000.9,1015
2023-03-13T02:41:00+09:00,7.8,�k�k��,12.3,�k�k��,10.2,93.9,0,5,7,8,0,0,1000.9,1015
2023-03-13T02:42:00+09:00,7.6,�k�k��,12.3,�k�k��,10.2,94,0,5,7,8,0,0,1000.9,1015
2023-03-13T02:43:00+09:00,7.7,�k�k��,12.3,�k�k��,10.2,93.9,0.5,5.5,7.5,8.5,0,0,1000.8,1014.9
2023-03-13T02:44:00+09:00,7.6,�k�k��,12.3,�k�k��,10.1,93.7,0.5,5.5,7.5,8.5,0,0,1000.8,1014.9
2023-03-13T02:45:00+09:00,7.6,�k�k��,12.8,�k�k��,10.1,93.7,0.5,5.5,7.5,8.5,0,0,1000.9,1015
2023-03-13T02:46:00+09:00,7.6,�k�k��,12.8,�k�k��,10.1,93.5,0.5,5.5,7.5,8.5,0,0,1000.9,1015
2023-03-13T02:47:00+09:00,7.7,�k�k��,12.8,�k�k��,10.1,93.6,0.5,5.5,7.5,8.5,0,0,1000.9,1015
2023-03-13T02:48:00+09:00,7.3,�k�k��,12.8,�k�k��,10,93.3,0.5,5.5,7.5,8.5,0,0,1001.1,1015.2
2023-03-13T02:49:00+09:00,7.1,�k�k��,12.8,�k�k��,9.8,92.5,0.5,5.5,7.5,8.5,0,0,1001.3,1015.4
2023-03-13T02:50:00+09:00,6.8,�k,12.8,�k�k��,9.8,92.4,1,6,8,9,0,0,1001.5,1015.6
2023-03-13T02:51:00+09:00,6.5,�k,12.8,�k�k��,9.7,92.1,1,6,8,9,0,0,1001.6,1015.7
2023-03-13T02:52:00+09:00,6.4,�k,12.8,�k�k��,9.6,92,1.5,6.5,8.5,9.5,0,0,1001.7,1015.8
2023-03-13T02:53:00+09:00,6,�k,12.8,�k�k��,9.6,92,1.5,7,9,10,0,0,1001.7,1015.8
2023-03-13T02:54:00+09:00,5.6,�k,12.8,�k�k��,9.6,92.1,2,7.5,9.5,10.5,0,0,1001.9,1016
2023-03-13T02:55:00+09:00,5.3,�k,12.5,�k,9.5,92,2.5,7.5,10,11,0,0,1001.8,1015.9
2023-03-13T02:56:00+09:00,5,�k�k��,12.5,�k,9.5,92,3,8,10.5,11.5,0,0,1002,1016.1
2023-03-13T02:57:00+09:00,4.7,�k�k��,12.5,�k,9.5,92.4,3,8,10.5,11.5,0,0,1001.8,1015.9
2023-03-13T02:58:00+09:00,4.5,�k�k��,10.5,�k��,9.6,92.8,3.5,8.5,11,12,0,0,1001.8,1015.9
2023-03-13T02:59:00+09:00,4.4,�k�k��,10.5,�k��,9.5,92.9,3.5,8.5,11,12,0,0,1001.9,1016
2023-03-13T03:00:00+09:00,4.2,�k,10.5,�k��,9.5,93.2,3.5,9,11.5,12.5,0,0,1001.9,1016
2023-03-13T03:01:00+09:00,4,�k,10.5,�k��,9.6,93.5,3.5,8.5,11.5,12.5,0,0,1002,1016.1
2023-03-13T03:02:00+09:00,4,�k,10.5,�k��,9.6,93.8,3,8.5,11.5,12.5,0,0,1002,1016.1
2023-03-13T03:03:00+09:00,3.9,�k,10.5,�k��,9.6,94.1,3,9,12,13,0,0,1002,1016.1
2023-03-13T03:04:00+09:00,4.2,�k,10.5,�k��,9.6,94.1,2.5,9,12,13,0,0,1001.9,1016
2023-03-13T03:05:00+09:00,4.1,�k,9.1,�k,9.6,94.2,2,9,12,13,0,0,1002,1016.1
2023-03-13T03:06:00+09:00,4.3,�k�k��,10.9,�k,9.6,94.5,1.5,9,12,13,0,0,1001.9,1016
2023-03-13T03:07:00+09:00,4.7,�k�k��,10.9,�k,9.6,94.4,1.5,9,12,13,0,0,1001.9,1016
2023-03-13T03:08:00+09:00,4.9,�k�k��,10.9,�k,9.5,94.3,1,8.5,12,13,0,0,1001.9,1016
2023-03-13T03:09:00+09:00,5.1,�k�k��,10.9,�k,9.5,94.2,1,8.5,12,13,0,0,1001.8,1015.9
2023-03-13T03:10:00+09:00,5.3,�k�k��,10.9,�k,9.5,94.4,0.5,8,12,13,0,0,1001.9,1016
2023-03-13T03:11:00+09:00,5.5,�k�k��,10.9,�k,9.6,94.7,0.5,8,12,13,0,0,1001.9,1016
2023-03-13T03:12:00+09:00,5.6,�k�k��,10.9,�k,9.6,94.8,0.5,7.5,12,13,0,0,1002,1016.1
2023-03-13T03:13:00+09:00,5.9,�k�k��,10.9,�k,9.6,94.7,0,7,12,13,0,0,1002,1016.1
2023-03-13T03:14:00+09:00,5.9,�k�k��,10.9,�k,9.5,94.5,0,6.5,12,13,0,0,1002.1,1016.2
2023-03-13T03:15:00+09:00,5.9,�k�k��,10.9,�k,9.6,94.5,0,6.5,12,13,0,0,1002.1,1016.2
2023-03-13T03:16:00+09:00,5.9,�k�k��,9.8,�k�k��,9.6,94.6,0,6.5,12,13,0,0,1002.2,1016.3
2023-03-13T03:17:00+09:00,5.6,�k�k��,9.5,�k��,9.7,94.5,0,6.5,12,13,0,0,1002.2,1016.3
2023-03-13T03:18:00+09:00,5.6,�k�k��,9.5,�k��,9.6,94.5,0,6.5,12,13,0,0,1002.3,1016.4
2023-03-13T03:19:00+09:00,5.6,�k�k��,9.5,�k��,9.6,94.1,0.5,6.5,12.5,13.5,0,0,1002.3,1016.4
2023-03-13T03:20:00+09:00,5.5,�k�k��,9.1,�k�k��,9.6,94,0.5,6.5,12.5,13.5,0,0,1002.4,1016.5
2023-03-13T03:21:00+09:00,5.5,�k�k��,9.1,�k�k��,9.7,94.2,0.5,6.5,12.5,13.5,0,0,1002.3,1016.4
2023-03-13T03:22:00+09:00,5.5,�k�k��,9.1,�k�k��,9.7,94.1,0.5,6.5,12.5,13.5,0,0,1002.3,1016.4
2023-03-13T03:23:00+09:00,5.4,�k�k��,9.1,�k�k��,9.7,94,0.5,6,12.5,13.5,0,0,1002.4,1016.5
2023-03-13T03:24:00+09:00,5.1,�k�k��,9.1,�k�k��,9.6,93.8,0.5,6,12.5,13.5,0,0,1002.4,1016.5
2023-03-13T03:25:00+09:00,5.1,�k�k��,9.1,�k�k��,9.6,93.6,0.5,6,12.5,13.5,0,0,1002.4,1016.5
2023-03-13T03:26:00+09:00,4.9,�k�k��,9.1,�k�k��,9.6,93.6,0.5,6,12.5,13.5,0,0,1002.3,1016.4
2023-03-13T03:27:00+09:00,4.9,�k�k��,9.1,�k�k��,9.6,93.5,0.5,6,12.5,13.5,0,0,1002.3,1016.4
2023-03-13T03:28:00+09:00,4.9,�k�k��,9.1,�k�k��,9.7,93.6,0.5,6,12.5,13.5,0,0,1002.4,1016.5
2023-03-13T03:29:00+09:00,4.8,�k�k��,7.9,�k�k��,9.6,93.6,0,6,12.5,13.5,0,0,1002.4,1016.5
2023-03-13T03:30:00+09:00,4.6,�k�k��,7.9,�k�k��,9.5,93.5,0,5.5,12.5,13.5,0,0,1002.4,1016.5
2023-03-13T03:31:00+09:00,4.6,�k�k��,7.9,�k�k��,9.6,93.3,0,5.5,12.5,13.5,0,0,1002.4,1016.5
2023-03-13T03:32:00+09:00,4.4,�k�k��,7.9,�k�k��,9.7,93.8,0,5.5,12.5,13.5,0,0,1002.4,1016.5
2023-03-13T03:33:00+09:00,4.3,�k�k��,7.9,�k�k��,9.6,93.6,0,5.5,12.5,13.5,0,0,1002.4,1016.5
2023-03-13T03:34:00+09:00,4.2,�k�k��,7.9,�k�k��,9.5,93.3,0,5.5,12.5,13.5,0,0,1002.4,1016.5
2023-03-13T03:35:00+09:00,4,�k�k��,7.9,�k�k��,9.5,93.4,0,5.5,12.5,13.5,0,0,1002.4,1016.5
2023-03-13T03:36:00+09:00,3.9,�k�k��,7.9,�k�k��,9.6,93.8,0.5,6,13,14,0,0,1002.4,1016.5
2023-03-13T03:37:00+09:00,3.7,�k��,6.6,�k�k��,9.5,93.4,0.5,6,13,14,0,0,1002.4,1016.5
2023-03-13T03:38:00+09:00,3.5,�k��,6.6,�k�k��,9.5,93.2,0.5,6,13,14,0,0,1002.4,1016.5
2023-03-13T03:39:00+09:00,3.3,�k��,5.3,�k��,9.4,93.2,0.5,6,13,14,0,0,1002.5,1016.6
2023-03-13T03:40:00+09:00,3,�k��,5.3,�k��,9.3,93,0.5,6,13,14,0,0,1002.5,1016.6
2023-03-13T03:41:00+09:00,2.8,�k��,5.1,�k��,9.3,93,0.5,6,13,14,0,0,1002.5,1016.6
2023-03-13T03:42:00+09:00,2.6,�k��,5.1,�k��,9.3,93.4,0.5,6,13,14,0,0,1002.5,1016.6
2023-03-13T03:43:00+09:00,2.4,�k��,5.1,�k��,9.4,93.2,0.5,5.5,13,14,0,0,1002.5,1016.6
2023-03-13T03:44:00+09:00,2.4,�k��,5.1,�k��,9.5,93.8,0.5,5.5,13,14,0,0,1002.4,1016.5
2023-03-13T03:45:00+09:00,2.3,�k��,5.1,�k��,9.3,93.5,0.5,5.5,13,14,0,0,1002.3,1016.4
2023-03-13T03:46:00+09:00,2.2,�k��,5.1,�k��,9.5,94,0,5.5,13,14,0,0,1002.3,1016.4
2023-03-13T03:47:00+09:00,2.2,�k��,5.1,�k��,9.3,93.8,0,5.5,13,14,0,0,1002.3,1016.4
2023-03-13T03:48:00+09:00,1.9,�k��,4.3,�k��,9.4,93.7,0,5.5,13,14,0,0,1002.3,1016.4
2023-03-13T03:49:00+09:00,1.8,�k��,4.2,�k��,9.3,93.8,0,5.5,13,14,0,0,1002.2,1016.3
2023-03-13T03:50:00+09:00,1.8,�k��,4.2,�k��,9.3,93.8,0,5,13,14,0,0,1002.1,1016.2
2023-03-13T03:51:00+09:00,1.7,�k��,4.2,�k��,9.5,94.3,0,5,13,14,0,0,1002.2,1016.3
2023-03-13T03:52:00+09:00,1.6,�k�k��,4.2,�k��,9.5,94.5,0,4.5,13,14,0,0,1002.2,1016.3
2023-03-13T03:53:00+09:00,1.5,�k�k��,4.2,�k��,9.4,94.3,0,4,13,14,0,0,1002.2,1016.3
2023-03-13T03:54:00+09:00,1.5,�k�k��,4.2,�k��,9.4,94.2,0,3.5,13,14,0,0,1002.1,1016.2
2023-03-13T03:55:00+09:00,1.3,�k,4.2,�k��,9.4,94.2,0,3,13,14,0,0,1002.2,1016.3
2023-03-13T03:56:00+09:00,1.1,�k,2.5,�k��,9.4,94.1,0,2.5,13,14,0,0,1002.1,1016.2
2023-03-13T03:57:00+09:00,1,�k,2.5,�k��,9.4,94.5,0,2.5,13,14,0,0,1002.2,1016.3
2023-03-13T03:58:00+09:00,1,�k�k��,2.5,�k��,9.3,94.1,0,2,13,14,0,0,1002.2,1016.3
2023-03-13T03:59:00+09:00,0.9,�k�k��,2.5,�k��,9.2,93.6,0,2,13,14,0,0,1002.3,1016.4
2023-03-13T04:00:00+09:00,0.7,�k�k��,2.5,�k��,9.3,94.4,0,1.5,13,14,0,0,1002.3,1016.4
2023-03-13T04:01:00+09:00,0.7,�k�k��,2.5,�k��,9.4,94.6,0,1.5,13,14,0,0,1002.3,1016.4
2023-03-13T04:02:00+09:00,0.7,�k�k��,2.5,�k��,9.2,94.6,0,1.5,13,14,0,0,1002.3,1016.4
2023-03-13T04:03:00+09:00,0.6,�k�k��,2.5,�k��,9.1,94.1,0,1,13,14,0,0,1002.4,1016.5
2023-03-13T04:04:00+09:00,0.4,�k,2.1,�k,9.2,94.7,0,1,13,14,0,0,1002.3,1016.4
2023-03-13T04:05:00+09:00,0.3,�k�k��,1.7,�k�k��,9.2,94.5,0,1,13,14,0,0,1002.2,1016.3
2023-03-13T04:06:00+09:00,0.2,�É�,1.7,�k�k��,9.3,95.2,0,1,13,14,0,0,1002.3,1016.4
2023-03-13T04:07:00+09:00,0.2,�É�,1.6,���쐼,9.2,95.1,0,1,13,14,0,0,1002.4,1016.5
2023-03-13T04:08:00+09:00,0.2,�É�,1.8,��쐼,9.1,95.1,0,1,13,14,0,0,1002.4,1016.5
2023-03-13T04:09:00+09:00,0.3,���쓌,1.8,��쐼,9,94.7,0,1,13,14,0,0,1002.5,1016.6
2023-03-13T04:10:00+09:00,0.4,�쓌,1.8,��쐼,9,94.9,0,1,13,14,0,0,1002.4,1016.5
2023-03-13T04:11:00+09:00,0.5,�쓌,1.8,��쐼,9.1,95.1,0,1,13,14,0,0,1002.4,1016.5
2023-03-13T04:12:00+09:00,0.7,���쓌,2.9,���k��,9.2,95.2,0,1,13,14,0,0,1002.4,1016.5
2023-03-13T04:13:00+09:00,0.8,���쓌,2.9,���k��,9.1,95.2,0,1,13,14,0,0,1002.5,1016.6
2023-03-13T04:14:00+09:00,0.9,�쓌,3.8,���k��,9.1,95,0,1,13,14,0,0,1002.5,1016.6
2023-03-13T04:15:00+09:00,1.1,�쓌,4.9,��,9.2,95.2,0,1,13,14,0,0,1002.5,1016.6
2023-03-13T04:16:00+09:00,1.3,�쓌,4.9,��,9.1,94.9,0,1,13,14,0,0,1002.4,1016.5
2023-03-13T04:17:00+09:00,1.4,�쓌,4.9,��,9.1,95,0,1,13,14,0,0,1002.4,1016.5
2023-03-13T04:18:00+09:00,1.4,���쓌,4.9,��,9.1,94.7,0,1,13,14,0,0,1002.4,1016.5
2023-03-13T04:19:00+09:00,1.4,���쓌,4.9,��,9.2,94.8,0,0.5,13,14,0,0,1002.4,1016.5
2023-03-13T04:20:00+09:00,1.5,��,4.9,��,9.3,95.1,0,0.5,13,14,0,0,1002.3,1016.4
2023-03-13T04:21:00+09:00,1.6,��,4.9,��,9.3,94.7,0,0.5,13,14,0,0,1002.3,1016.4
2023-03-13T04:22:00+09:00,1.5,��,4.9,��,9.2,94.5,0,0.5,13,14,0,0,1002.2,1016.3
2023-03-13T04:23:00+09:00,1.6,��,5.3,��,9.3,94.2,0,0.5,13,14,0,0,1002.2,1016.3
2023-03-13T04:24:00+09:00,1.6,���쓌,5.3,��,9.3,93.9,0,0.5,13,14,0,0,1002.3,1016.4
2023-03-13T04:25:00+09:00,1.5,���쓌,5.3,��,9.3,94,0.5,1,13.5,14.5,0,0,1002.3,1016.4
2023-03-13T04:26:00+09:00,1.5,���쓌,5.3,��,9.1,93.5,0.5,1,13.5,14.5,0,0,1002.2,1016.3
2023-03-13T04:27:00+09:00,1.4,��쓌,5.3,��,9,93.1,0.5,1,13.5,14.5,0,0,1002.2,1016.3
2023-03-13T04:28:00+09:00,1.4,��,5.3,��,9.1,93.2,0.5,1,13.5,14.5,0,0,1002.2,1016.3
2023-03-13T04:29:00+09:00,1.4,��쐼,5.3,��,9.2,93.6,0.5,1,13.5,14.5,0,0,1002.2,1016.3
2023-03-13T04:30:00+09:00,1.2,��쐼,5.3,��,9.3,94.3,0.5,1,13.5,14.5,0,0,1002.2,1016.3
2023-03-13T04:31:00+09:00,1.1,��쐼,5.3,��,9.1,93.9,0.5,1,13.5,14.5,0,0,1002.1,1016.2
2023-03-13T04:32:00+09:00,1,��쐼,5.3,��,9,93.6,0.5,1,13.5,14.5,0,0,1002.1,1016.2
2023-03-13T04:33:00+09:00,0.9,��쐼,2.1,��,9,93.8,0.5,1,13.5,14.5,0,0,1002.1,1016.2
2023-03-13T04:34:00+09:00,0.8,��쐼,2.1,��,9.1,94,0.5,1,13.5,14.5,0,0,1002,1016.1
2023-03-13T04:35:00+09:00,0.8,��쐼,2.1,��,9.2,94.4,0,1,13.5,14.5,0,0,1002,1016.1
2023-03-13T04:36:00+09:00,0.8,��쐼,2.1,��,9.3,95.1,0,0.5,13.5,14.5,0,0,1002,1016.1
2023-03-13T04:37:00+09:00,0.8,��쐼,2.1,��,9.1,94.6,0,0.5,13.5,14.5,0,0,1002,1016.1
2023-03-13T04:38:00+09:00,0.7,��,1.6,��쐼,9.1,94.4,0,0.5,13.5,14.5,0,0,1002,1016.1
2023-03-13T04:39:00+09:00,0.7,��,1.6,��쐼,9.3,94.9,0,0.5,13.5,14.5,0,0,1001.9,1016
2023-03-13T04:40:00+09:00,0.6,��쐼,1.6,��쐼,9.3,95.2,0,0.5,13.5,14.5,0,0,1001.9,1016
2023-03-13T04:41:00+09:00,0.6,��쐼,1.6,��쐼,9.2,94.9,0,0.5,13.5,14.5,0,0,1001.9,1016
2023-03-13T04:42:00+09:00,0.6,��쐼,1.6,��쐼,9,94.5,0,0.5,13.5,14.5,0,0,1002,1016.1
2023-03-13T04:43:00+09:00,0.7,��쐼,1.8,�쐼,9.1,94.5,0,0.5,13.5,14.5,0,0,1002.1,1016.2
2023-03-13T04:44:00+09:00,0.8,��쐼,2.2,�쐼,9,94.4,0,0.5,13.5,14.5,0,0,1002.2,1016.3
2023-03-13T04:45:00+09:00,0.9,�쐼,2.2,�쐼,9.1,94.9,0,0.5,13.5,14.5,0,0,1002,1016.1
2023-03-13T04:46:00+09:00,0.9,�쐼,2.2,�쐼,9.1,95.2,0,0.5,13.5,14.5,0,0,1002,1016.1
2023-03-13T04:47:00+09:00,1,�쐼,2.2,�쐼,9.1,95.3,0,0.5,13.5,14.5,0,0,1001.9,1016
2023-03-13T04:48:00+09:00,1,�쐼,2.2,�쐼,9.2,95.4,0,0.5,13.5,14.5,0,0,1001.9,1016